Weather in Dokhnovichi

Russia / Bryansk Oblast     52°31′16″N   32°53′35″E
temp.,
°C
wind,
m/s
gust,
m/s
humid.,
%
clouds,
%
prec.,
mm/h
press.,
hPa
HPBL,
m
10 may, mon
mon1000:00+4nw47743 0.0 1025106
03:00+3nnw35765 0.0 102665
06:00+3n33780 0.0 102750
09:00+9n34580 0.0 1028389
12:00+13nne45440 0.0 10271389
15:00+14nne56430 0.0 10261602
18:00+13nne46560 0.0 1025878
21:00+8nne47720 0.0 102692
11 may, tue
tue1100:00+6nne48780 0.0 1026117
03:00+5nne4117530 0.0 1026191
06:00+5nne512765 0.0 1025244
09:00+11ne69705 0.0 1024393
12:00+16nne68645 0.0 1022733
15:00+19ne79625 0.0 10211110
18:00+18ene7107123 0.3 1021992
21:00+11ese6109250 1.0 1023524
12 may, wed
wed1200:00+7e411960 0.0 1023306
03:00+6e410950 0.0 1024301
06:00+5e410958 0.0 1024309
09:00+11ene5777100 0.0 1023527
12:00+14ene6861100 0.1 10211628
15:00+13ene6769100 0.6 10191072
18:00+11ene4676100 0.1 1017644
21:00+9e4984100 0.1 1016407
13 may, thu
thu1300:00+8ese5109189 0.1 1015620
03:00+6ese399842 0.1 1015236
06:00+7se599696 0.2 1015440
09:00+9se6884100 0.2 1016632
12:00+14sse6960100 0.0 10151580
15:00+17sse79547 0.0 10142022
18:00+15sse597287 0.0 1014600
21:00+12ese4789100 0.0 1014103
14 may, fri
fri1400:00+12e41191100 0.1 1013243
03:00+12e5149214 0.3 1012344
06:00+12ese61492100 0.5 1011415
09:00+15se7118995 3.1 1009639
12:00+17sse61188100 1.0 10091045
15:00+19s8117171 1.4 10091352
18:00+18ssw5975100 0.9 10091039
21:00+14ssw3389100 0.9 101034